Wind_Speed
28 29 28 27 28 29 30 31 31 31 32 34 34 35 35 37 37 37 38 38 39 39 38 39 39 39 39 39 39 39 39 39 39 40 40 41 42 42 43 43 43 43 42 42
27 28 27 28 28 29 29 30 31 31 32 33 33 34 34 35 37 37 37 38 38 39 39 40 40 40 40 40 40 40 40 40 40 40 41 42 42 42 43 43 43 44 44 44
26 26 27 28 28 29 29 29 30 31 31 32 33 33 33 35 36 36 36 37 37 38 39 39 40 41 41 41 41 40 40 40 41 41 41 42 42 43 43 43 44 45 45 45
25 25 26 27 28 29 29 28 29 30 31 32 33 33 32 33 34 35 35 36 36 37 37 38 39 40 41 42 42 42 42 42 42 42 42 42 43 43 44 45 45 46 46 46
24 25 26 26 26 27 27 27 28 29 30 31 31 33 31 32 32 33 33 34 34 35 36 37 38 38 39 41 42 43 43 43 43 43 43 43 43 44 45 45 46 46 47 48
22 23 23 24 25 26 26 26 27 27 28 30 29 31 30 30 30 30 31 32 32 33 34 35 36 38 38 39 39 40 41 42 43 43 44 44 44 45 46 46 47 47 48 48
19 20 21 21 22 23 24 24 25 26 27 27 27 29 29 28 28 28 29 30 31 32 33 33 34 35 36 37 37 38 40 41 41 42 43 43 44 45 46 47 47 48 48 49
18 18 19 19 20 20 21 22 23 25 25 25 24 25 25 25 26 26 27 28 28 29 30 31 32 33 34 35 37 38 39 39 40 41 41 41 42 43 44 45 46 47 48 49
17 18 18 18 18 18 18 19 20 22 23 23 23 23 22 22 22 23 24 25 26 28 29 30 31 33 33 34 35 36 37 38 39 39 40 40 41 42 43 43 44 47 48 48
17 17 16 17 17 17 17 18 18 19 21 22 22 22 22 21 22 23 24 25 26 27 28 29 31 32 33 34 35 35 36 37 38 39 39 40 41 42 42 43 43 45 46 47
16 16 16 15 16 16 17 17 18 19 20 21 21 20 21 22 23 24 25 25 26 26 28 29 30 31 32 33 33 34 35 37 37 38 38 39 40 41 42 43 43 43 44 46
16 16 16 16 16 16 17 17 18 19 19 20 21 20 21 22 23 24 25 25 26 27 27 28 29 29 30 32 33 34 35 36 37 37 38 39 39 41 41 41 42 42 43 44
17 17 17 17 17 18 18 18 18 19 20 20 21 20 21 23 23 24 24 25 26 26 27 28 28 29 30 31 32 33 34 35 36 37 38 38 39 39 39 39 40 41 41 42
18 18 18 18 19 20 19 19 20 20 20 20 19 19 20 21 22 23 23 23 24 26 26 26 27 28 28 29 30 31 32 33 34 35 36 37 38 38 38 38 38 39 39 40
19 19 18 18 19 20 20 20 21 20 19 19 18 18 19 20 21 22 23 23 24 25 25 26 26 27 27 28 29 30 31 32 33 33 34 35 36 36 36 36 36 36 37 38
19 19 19 19 20 20 19 19 20 19 19 19 19 19 20 21 21 21 23 24 24 25 25 24 25 26 26 27 28 28 29 31 32 32 33 34 34 34 34 34 35 35 35 36
18 19 19 20 20 20 19 20 21 21 21 21 20 20 21 21 21 22 22 23 24 24 23 24 25 25 26 26 27 27 28 28 29 30 31 32 32 33 33 33 34 34 34 34
19 19 20 20 20 20 19 20 21 21 21 21 21 21 21 21 21 22 22 23 23 23 23 24 25 25 24 25 26 26 26 26 27 28 28 29 30 30 31 32 32 32 32 33
19 20 20 20 20 20 19 20 21 21 21 21 21 21 21 21 21 22 22 22 22 23 23 24 24 24 24 24 25 25 25 26 26 26 27 28 28 29 29 30 30 30 31 31
19 19 19 20 21 21 20 20 21 22 21 20 20 20 20 20 20 20 21 22 22 22 22 23 23 24 24 24 25 25 25 25 25 25 25 26 27 27 27 27 27 28 29 30
18 19 19 21 22 20 19 20 20 20 19 20 20 20 20 20 20 21 22 22 22 23 22 22 23 24 24 24 24 24 24 24 24 25 25 25 26 25 25 25 25 26 26 27
19 19 19 21 21 20 20 20 20 20 20 20 20 20 21 21 22 22 23 23 23 23 23 23 23 23 23 24 24 23 24 24 24 24 24 24 24 24 24 24 25 25 25 25
19 20 20 20 20 20 20 20 20 20 20 20 21 21 21 22 22 22 23 23 23 23 23 23 23 23 23 23 23 23 23 23 23 23 24 23 23 22 22 23 24 23 24 24
20 20 20 20 19 19 19 19 20 20 20 20 21 21 21 21 21 21 22 22 22 22 22 22 23 23 23 23 23 22 23 23 22 22 21 21 21 21 22 22 22 22 23 23
20 20 20 19 18 19 19 19 19 19 19 19 20 20 20 20 20 21 21 21 22 22 21 22 22 23 23 23 22 22 22 21 21 20 21 20 20 21 20 21 21 20 20 20
19 20 20 19 19 19 19 19 18 18 18 18 18 18 18 18 19 19 19 20 20 21 21 21 21 22 22 21 21 20 20 19 19 19 18 18 18 18 18 18 18 18 18 18
Wind_Direction
263 263 264 265 264 263 261 260 259 259 258 257 256 255 254 254 254 253 253 253 253 254 254 254 255 256 257 258 259 260 260 260 259 259 259 258 258 258 259 259 260 259 260 259
264 265 265 265 265 264 262 261 260 260 260 260 258 257 256 256 256 255 254 254 254 255 254 254 255 256 257 258 258 259 259 260 260 260 260 260 259 258 258 258 259 258 259 257
266 266 266 265 266 265 262 261 261 261 260 261 261 258 256 257 256 255 255 254 255 256 256 257 256 256 256 257 258 258 259 259 260 260 261 261 259 259 259 259 259 259 259 257
265 264 266 267 267 266 263 263 263 262 261 261 262 260 257 256 256 256 256 256 255 256 257 258 258 258 257 258 258 258 259 259 260 260 261 261 260 260 259 259 259 260 260 259
266 265 266 267 267 267 265 265 265 264 263 262 262 263 259 257 257 257 257 258 257 257 257 258 258 259 259 259 259 259 259 259 260 260 260 261 261 260 260 260 260 260 259 259
268 267 267 267 266 266 265 265 266 265 264 262 262 264 263 259 259 258 258 259 260 259 259 259 260 260 260 261 260 260 259 259 260 260 260 261 261 261 261 261 260 259 259 260
270 269 269 269 268 268 266 267 267 267 265 266 265 266 266 263 262 261 260 261 262 261 261 261 260 261 261 261 261 260 260 260 260 261 261 261 261 261 261 261 261 260 260 261
274 274 273 273 272 273 270 268 268 269 269 269 268 269 268 265 265 263 262 264 265 265 264 263 263 262 263 262 261 261 261 261 262 262 262 261 263 263 263 263 263 262 262 263
275 276 276 274 272 272 272 270 269 269 270 269 268 268 267 267 266 263 263 265 267 268 267 266 266 265 264 264 263 262 261 262 263 263 263 263 264 265 266 267 266 265 264 263
274 276 276 274 271 273 274 273 272 271 272 271 268 266 267 267 266 267 267 269 269 269 269 269 269 267 266 266 265 264 263 263 264 265 265 265 266 267 267 268 268 267 266 266
273 275 274 272 270 273 274 272 271 272 274 273 270 270 271 271 269 270 272 273 273 273 272 272 272 270 268 268 267 266 266 265 265 265 266 267 267 268 268 268 269 269 268 267
273 273 271 272 272 272 273 275 275 275 277 275 275 275 273 273 272 273 274 274 274 274 274 275 274 273 271 270 269 268 267 266 266 266 267 268 269 268 268 269 269 269 269 268
273 273 273 272 273 274 276 277 277 277 278 276 276 277 276 274 274 274 275 275 276 277 278 277 276 276 275 273 272 271 270 268 267 267 268 269 269 269 269 269 269 269 270 270
273 272 273 276 277 278 278 278 276 277 278 277 278 277 275 276 274 274 275 276 277 278 280 280 278 278 277 277 276 274 273 272 271 270 270 270 271 271 270 270 270 270 270 270
273 272 273 276 276 277 278 277 276 277 278 279 279 277 275 276 276 275 276 277 279 280 281 282 281 279 279 281 280 278 276 274 274 273 272 273 273 273 273 272 272 272 271 271
272 272 273 275 276 276 276 275 276 276 278 279 279 278 277 277 276 277 278 280 282 283 285 285 285 283 282 283 283 282 280 278 275 275 275 274 274 274 274 274 273 273 272 272
274 274 273 274 275 275 275 275 276 277 278 279 281 281 278 278 280 282 282 283 284 286 286 287 289 288 285 285 286 285 284 281 278 278 278 276 276 276 276 275 274 273 273 273
274 276 276 276 274 274 279 277 276 278 278 279 280 280 278 279 281 283 285 286 287 288 288 290 291 291 288 289 289 287 286 285 283 280 280 278 278 277 276 276 275 274 273 274
273 275 276 275 276 278 280 279 278 278 279 278 278 279 277 278 282 284 285 287 289 291 292 293 293 292 292 292 292 290 287 286 286 285 282 280 278 278 277 276 275 274 274 275
273 274 275 277 280 284 285 282 281 281 281 280 280 281 279 280 281 283 285 286 288 292 293 294 293 293 293 293 293 292 290 289 288 287 285 283 281 280 278 277 276 276 275 275
273 275 276 278 279 283 285 283 283 283 286 283 282 282 281 281 281 284 286 288 290 292 293 295 295 295 295 295 294 292 291 290 289 289 288 286 283 280 278 277 278 279 278 276
274 276 278 278 278 281 282 283 283 284 284 284 283 284 283 282 283 285 286 288 290 293 293 295 296 298 298 297 295 292 291 290 290 292 290 289 284 281 280 279 280 282 279 277
275 277 279 280 281 279 280 282 284 285 284 285 284 285 285 285 285 286 287 288 290 293 294 294 296 298 300 300 297 293 292 292 291 294 293 289 287 283 283 283 283 282 280 279
274 277 279 281 281 278 278 282 285 287 287 287 287 287 287 287 287 286 286 287 290 292 292 294 297 298 299 300 300 297 293 293 292 293 293 290 287 285 285 284 283 283 282 280
275 277 278 279 278 276 277 283 286 288 288 289 290 290 291 290 288 287 287 288 290 291 292 295 298 299 299 300 300 300 297 294 293 292 293 293 290 287 286 285 284 284 283 280
276 277 277 276 276 277 277 281 285 288 288 289 290 291 292 292 290 287 288 289 290 292 295 297 300 302 302 301 300 301 300 298 296 295 294 294 293 291 291 290 288 287 285 282
Height
5681 5683 5683 5683 5683 5683 5682 5683 5683 5684 5685 5686 5687 5688 5690 5690 5691 5693 5695 5697 5698 5700 5702 5703 5704 5706 5707 5708 5710 5711 5712 5713 5714 5714 5715 5716 5717 5718 5719 5720 5721 5721 5722 5723
5675 5675 5676 5674 5674 5674 5674 5675 5675 5676 5676 5677 5678 5680 5681 5681 5682 5684 5686 5687 5689 5690 5692 5693 5695 5696 5698 5699 5700 5701 5702 5703 5703 5704 5705 5706 5707 5708 5709 5709 5710 5711 5712 5713
5667 5668 5667 5667 5667 5666 5667 5667 5667 5667 5668 5668 5669 5671 5672 5672 5673 5675 5676 5677 5679 5680 5682 5683 5684 5686 5687 5688 5689 5690 5692 5692 5693 5694 5694 5695 5696 5697 5698 5699 5700 5700 5701 5702
5659 5660 5659 5659 5659 5658 5659 5659 5659 5659 5659 5660 5661 5661 5664 5663 5664 5665 5667 5668 5669 5671 5672 5673 5674 5675 5676 5677 5678 5679 5681 5682 5682 5683 5684 5684 5685 5686 5687 5687 5688 5689 5690 5690
5652 5652 5652 5651 5651 5651 5651 5651 5651 5651 5651 5651 5652 5652 5656 5655 5656 5657 5658 5659 5660 5661 5662 5663 5664 5665 5665 5666 5667 5668 5669 5670 5671 5671 5672 5673 5674 5675 5675 5676 5677 5677 5678 5678
5645 5645 5645 5644 5644 5644 5644 5644 5644 5643 5643 5644 5645 5644 5646 5647 5649 5649 5650 5650 5651 5651 5652 5653 5653 5654 5655 5655 5655 5656 5657 5658 5659 5659 5661 5662 5662 5663 5664 5664 5665 5665 5665 5666
5639 5639 5638 5638 5637 5637 5638 5638 5637 5636 5635 5637 5637 5636 5639 5639 5640 5641 5641 5642 5642 5642 5643 5643 5643 5643 5644 5644 5644 5645 5646 5647 5647 5648 5649 5649 5650 5651 5651 5652 5652 5653 5653 5653
5633 5634 5633 5632 5631 5631 5631 5631 5631 5630 5630 5630 5630 5629 5632 5632 5632 5632 5633 5633 5633 5633 5633 5633 5633 5633 5633 5634 5634 5634 5635 5635 5636 5636 5637 5637 5638 5638 5639 5639 5639 5640 5640 5640
5628 5628 5627 5626 5625 5625 5624 5624 5624 5624 5623 5623 5623 5624 5625 5624 5624 5625 5625 5625 5625 5625 5624 5624 5624 5624 5623 5623 5623 5623 5624 5625 5625 5625 5625 5626 5626 5627 5627 5627 5627 5627 5627 5627
5623 5622 5622 5621 5620 5620 5620 5619 5619 5618 5617 5617 5617 5618 5619 5618 5618 5618 5618 5617 5617 5617 5616 5616 5615 5614 5614 5613 5613 5613 5613 5614 5614 5614 5614 5615 5615 5615 5615 5615 5615 5614 5614 5614
5617 5617 5617 5616 5615 5615 5615 5614 5613 5612 5612 5611 5611 5615 5612 5612 5611 5611 5611 5610 5610 5609 5608 5607 5606 5605 5604 5604 5603 5603 5603 5603 5603 5603 5603 5603 5603 5603 5603 5603 5602 5602 5601 5601
5612 5612 5611 5611 5611 5610 5609 5609 5608 5608 5607 5606 5605 5610 5606 5605 5604 5603 5603 5603 5602 5601 5600 5599 5597 5596 5595 5594 5594 5593 5592 5592 5592 5592 5592 5592 5591 5591 5591 5590 5590 5590 5589 5589
5607 5607 5606 5606 5608 5606 5604 5604 5603 5602 5601 5600 5599 5604 5599 5598 5597 5597 5596 5595 5594 5593 5592 5590 5589 5587 5586 5585 5584 5583 5582 5581 5581 5581 5580 5580 5580 5579 5579 5578 5578 5578 5577 5576
5602 5601 5602 5602 5600 5599 5599 5598 5597 5596 5595 5594 5594 5595 5593 5591 5591 5590 5589 5588 5587 5586 5584 5582 5581 5579 5577 5576 5574 5573 5572 5571 5570 5569 5569 5568 5568 5567 5567 5566 5566 5565 5565 5564
5596 5596 5596 5595 5594 5594 5593 5592 5591 5590 5589 5589 5589 5588 5587 5585 5585 5584 5582 5581 5580 5578 5576 5574 5572 5570 5569 5567 5565 5563 5561 5560 5559 5558 5558 5557 5557 5556 5555 5555 5554 5554 5553 5553
5590 5590 5590 5589 5588 5587 5587 5587 5585 5585 5584 5583 5582 5582 5581 5579 5578 5577 5576 5574 5573 5571 5569 5567 5565 5563 5561 5559 5556 5554 5552 5550 5549 5548 5547 5546 5546 5545 5544 5544 5543 5542 5542 5541
5585 5585 5584 5584 5582 5581 5582 5582 5580 5579 5578 5577 5576 5577 5574 5573 5572 5571 5569 5568 5566 5564 5562 5560 5557 5555 5553 5550 5548 5545 5543 5540 5539 5538 5537 5536 5535 5535 5534 5533 5532 5532 5531 5530
5579 5578 5578 5577 5577 5576 5579 5575 5574 5573 5572 5571 5570 5569 5568 5567 5566 5564 5562 5561 5559 5557 5555 5552 5550 5548 5545 5543 5540 5537 5535 5533 5531 5529 5528 5527 5526 5525 5524 5523 5522 5522 5521 5520
5573 5573 5572 5571 5570 5570 5571 5569 5567 5566 5566 5565 5564 5563 5562 5560 5559 5558 5556 5554 5552 5550 5548 5545 5543 5541 5538 5536 5533 5530 5528 5525 5523 5521 5519 5518 5517 5516 5515 5514 5513 5512 5511 5510
5567 5567 5567 5565 5564 5564 5566 5563 5561 5561 5560 5559 5557 5556 5555 5554 5553 5553 5550 5548 5546 5544 5541 5539 5536 5534 5531 5529 5526 5523 5521 5518 5516 5514 5512 5510 5508 5507 5506 5505 5504 5503 5502 5501
5562 5561 5560 5559 5558 5558 5559 5556 5555 5556 5555 5553 5551 5550 5549 5548 5547 5546 5543 5541 5539 5537 5535 5532 5530 5527 5524 5522 5519 5516 5514 5511 5509 5507 5504 5502 5501 5499 5498 5497 5496 5494 5493 5492
5556 5555 5554 5553 5552 5554 5552 5550 5550 5549 5547 5546 5544 5543 5542 5541 5539 5538 5536 5534 5533 5530 5528 5526 5523 5521 5518 5515 5512 5509 5507 5505 5502 5500 5498 5495 5494 5492 5490 5489 5487 5486 5484 5483
5550 5550 5548 5548 5549 5547 5545 5544 5543 5542 5541 5539 5538 5537 5535 5534 5533 5531 5529 5527 5526 5524 5521 5519 5517 5514 5511 5508 5505 5503 5500 5498 5496 5493 5491 5489 5487 5485 5483 5482 5480 5478 5477 5475
5544 5543 5542 5541 5541 5540 5538 5537 5536 5535 5534 5532 5531 5530 5528 5527 5526 5524 5522 5520 5519 5517 5515 5513 5510 5508 5505 5502 5499 5496 5494 5491 5489 5487 5485 5483 5481 5479 5477 5475 5473 5471 5470 5468
5538 5537 5536 5535 5535 5533 5533 5532 5531 5529 5528 5526 5525 5523 5521 5520 5519 5517 5516 5514 5512 5510 5508 5506 5504 5501 5499 5496 5493 5490 5487 5485 5483 5481 5479 5477 5475 5473 5471 5469 5467 5465 5464 5462
5532 5531 5529 5529 5528 5527 5527 5526 5524 5523 5522 5520 5519 5517 5515 5514 5512 5511 5509 5508 5506 5504 5502 5500 5498 5495 5492 5489 5487 5484 5482 5479 5477 5476 5474 5472 5470 5468 5466 5463 5461 5459 5457 5456